[[{"header":{"parameterUnit":"m.s-1","parameterCategory":1,"la1":30.2992,"la2":30.254,"lo1":-89.0895,"lo2":-89.0443,"dy":0.0025,"dx":0.0025,"nx":19,"ny":19,"refTime":"2026-05-12T09:00:00:Z","depth":0,"parameterNumber":2,"parameterNumberName":"U-component_of_WINDS"},"data":[0,0,0,1.9866,1.9869,2.0015,2.0015,2.0204,2.0206,0,0,0,0,0,0,0,0,0,0,0,1.982,1.9821,1.9866,1.9869,2.0015,2.0015,2.0204,2.0206,0,0,0,0,0,0,0,0,0,0,0,1.982,1.9821,1.9822,1.987,2.0015,2.0015,2.0203,2.0094,0,0,0,0,0,0,0,0,0,0,1.9952,1.9906,1.9821,1.9822,1.9871,2.0014,2.0016,2.0088,2.01,2.0138,0,2.0166,0,2.0189,2.0218,2.0219,0,0,0,1.9872,1.9895,1.9937,1.9823,1.9872,2.0014,1.995,2.0095,2.0109,2.0154,2.0169,2.0176,2.0192,2.0219,2.022,2.0419,2.042,0,0,1.9864,1.9845,1.9928,1.9946,1.9919,1.9945,1.9954,2.0103,2.012,2.017,2.0181,2.0195,2.022,2.0222,2.0418,2.0419,0,0,0,1.9839,1.984,1.9878,1.9938,1.9964,1.9949,1.996,2.0114,2.0127,2.0183,2.0197,2.0221,2.0224,2.0417,2.0418,2.0438,0,0,0,1.9835,1.9825,1.9874,1.9864,1.9961,2.004,1.9967,2.0117,2.0135,2.0196,2.0222,2.0226,2.0416,2.0418,2.0436,2.0451,0,0,0,1.9812,1.9822,1.9842,1.9863,1.9924,2.0038,2.006,2.0121,2.0143,2.0219,2.0226,2.0416,2.0418,2.0434,2.0447,2.0499,0,0,0,1.9782,1.9857,1.9842,1.9932,1.9923,2.0048,2.0059,2.0154,2.0221,2.0222,2.0417,2.0418,2.0433,2.0445,2.0496,2.0538,2.0553,0,0,1.9866,1.9866,1.9921,1.9912,2.0034,2.0027,2.0155,2.0235,2.0261,2.0366,2.0371,2.0437,2.0447,2.0498,2.0646,2.0658,0,0,0,1.9942,1.9981,2.0018,2.0079,2.0142,2.0199,2.0261,2.0292,2.0382,2.031,2.047,2.0476,2.0507,2.0528,2.0539,2.0568,2.0427,2.0427,2.0427,2.0032,2.0061,2.0155,2.0202,2.0263,2.0329,2.0383,2.0436,2.0447,2.0486,2.0516,2.0602,2.0626,2.0634,2.0664,2.0541,2.0541,2.0541,2.0541,2.0158,2.0219,2.0235,2.0331,2.0363,2.0446,2.0516,2.0522,2.0607,2.058,2.0609,2.0578,2.0646,2.0674,2.0543,2.0543,2.0542,2.0542,2.0542,2.022,2.0254,2.029,2.0386,2.0458,2.0506,2.0587,2.0614,2.064,2.0669,2.0706,2.0706,2.071,2.0685,2.0685,2.0686,2.0686,2.0686,2.0686,2.0269,2.031,2.0373,2.0449,2.0495,2.0559,2.063,2.0677,2.0737,2.0751,2.0751,2.0761,2.0647,2.0618,2.0691,2.069,2.069,2.0689,2.0689,2.0386,2.0365,2.0462,2.0508,2.0602,2.0674,2.0709,2.0804,2.0848,2.0888,2.0894,2.0804,2.0807,2.0799,2.0775,2.0885,2.0885,2.0885,2.0885,2.0438,2.0442,2.055,2.0623,2.0697,2.074,2.0855,2.0914,2.0972,2.1002,2.0991,2.0962,2.0953,2.0961,2.095,2.0928,2.1074,2.1075,2.1075,2.0512,2.0526,2.0615,2.0669,2.0747,2.0814,2.0924,2.1011,2.1073,2.1083,2.1027,2.1019,2.0973,2.0956,2.0961,2.0943,2.0904,0,0]},{"header":{"parameterUnit":"m.s-1","parameterCategory":1,"la1":30.2992,"la2":30.254,"lo1":-89.0895,"lo2":-89.0443,"dy":0.0025,"dx":0.0025,"nx":19,"ny":19,"refTime":"2026-05-12T09:00:00:Z","depth":0,"parameterNumber":3,"parameterNumberName":"V-component_of_WINDS"},"data":[0,0,0,-0.63,-0.6295,-0.6015,-0.6014,-0.5667,-0.5664,0,0,0,0,0,0,0,0,0,0,0,-0.6392,-0.639,-0.6301,-0.6294,-0.6015,-0.6014,-0.5668,-0.5664,0,0,0,0,0,0,0,0,0,0,0,-0.6393,-0.6391,-0.6388,-0.6293,-0.6016,-0.6014,-0.5668,-0.5875,0,0,0,0,0,0,0,0,0,0,-0.6144,-0.6238,-0.6391,-0.6388,-0.6291,-0.6016,-0.6014,-0.5884,-0.5862,-0.5799,0,-0.5748,0,-0.5701,-0.5642,-0.5641,0,0,0,-0.6286,-0.6257,-0.6174,-0.6388,-0.6289,-0.6016,-0.6139,-0.5872,-0.5846,-0.5769,-0.5743,-0.573,-0.5695,-0.564,-0.5638,-0.5309,-0.5308,0,0,-0.6302,-0.6346,-0.6192,-0.6158,-0.6205,-0.6148,-0.613,-0.5856,-0.5829,-0.5742,-0.5722,-0.569,-0.5638,-0.5635,-0.531,-0.5308,0,0,0,-0.6351,-0.6357,-0.628,-0.6173,-0.6122,-0.614,-0.612,-0.5842,-0.5813,-0.5718,-0.5686,-0.5636,-0.5632,-0.5311,-0.5309,-0.5294,0,0,0,-0.636,-0.6386,-0.6288,-0.6312,-0.6127,-0.5979,-0.6112,-0.5832,-0.58,-0.5687,-0.5636,-0.5628,-0.5312,-0.531,-0.5297,-0.5279,0,0,0,-0.6407,-0.6391,-0.6354,-0.6315,-0.6197,-0.5982,-0.5938,-0.5824,-0.578,-0.5641,-0.5627,-0.5313,-0.531,-0.53,-0.5283,-0.5204,0,0,0,-0.6469,-0.6344,-0.6355,-0.6203,-0.6199,-0.5977,-0.5939,-0.577,-0.5649,-0.5634,-0.5312,-0.5309,-0.5301,-0.5286,-0.5207,-0.5144,-0.5123,0,0,-0.6336,-0.633,-0.6236,-0.6238,-0.6025,-0.6016,-0.5799,-0.5644,-0.5589,-0.5405,-0.5396,-0.5296,-0.5283,-0.5205,-0.4991,-0.4974,0,0,0,-0.6209,-0.6142,-0.6076,-0.5964,-0.5846,-0.5741,-0.5616,-0.5558,-0.54,-0.5505,-0.5246,-0.5237,-0.5189,-0.5156,-0.5142,-0.5097,-0.5297,-0.5297,-0.5298,-0.6082,-0.6021,-0.5862,-0.5767,-0.5658,-0.5531,-0.5436,-0.5337,-0.5305,-0.5245,-0.5189,-0.5067,-0.5031,-0.502,-0.4974,-0.5152,-0.5152,-0.5152,-0.5152,-0.5879,-0.5774,-0.5737,-0.557,-0.5505,-0.5362,-0.5234,-0.5216,-0.5072,-0.5104,-0.5058,-0.5097,-0.5004,-0.496,-0.515,-0.5151,-0.5151,-0.5151,-0.5151,-0.5787,-0.5726,-0.566,-0.5492,-0.5369,-0.5276,-0.514,-0.5086,-0.5033,-0.4988,-0.4922,-0.4922,-0.4913,-0.4961,-0.4961,-0.496,-0.496,-0.4959,-0.4959,-0.5716,-0.5643,-0.5536,-0.5401,-0.5321,-0.521,-0.5082,-0.5001,-0.4897,-0.4868,-0.4867,-0.484,-0.5008,-0.505,-0.4952,-0.4953,-0.4954,-0.4955,-0.4955,-0.5529,-0.5563,-0.5398,-0.5319,-0.5155,-0.5035,-0.4969,-0.4809,-0.4735,-0.4669,-0.4652,-0.4786,-0.4774,-0.4785,-0.4819,-0.4668,-0.4668,-0.4668,-0.4668,-0.5449,-0.544,-0.5259,-0.5136,-0.5009,-0.4933,-0.4745,-0.4644,-0.4544,-0.4494,-0.4508,-0.455,-0.4564,-0.4543,-0.4559,-0.459,-0.4384,-0.4384,-0.4383,-0.5329,-0.5305,-0.5157,-0.5063,-0.4931,-0.4818,-0.464,-0.4497,-0.4391,-0.4371,-0.4452,-0.4464,-0.4531,-0.4556,-0.4535,-0.4561,-0.4617,0,0]}]]